Location: Burbank
(38.7788°N, 114.0429°W)
Time: 14:41:13
(UTC+00:00)

Vanguard 2 - Pass Details

Date: 10 May 2026
Orbit: 553 x 2894 km, 32.9° (Epoch: 6 June)

Event Time Altitude Azimuth Distance (km) Brightness Sun altitude
Rises 13:37:41 0° 265° (W) 6,567 11.6 12.0°
Reaches altitude 10° 13:42:25 10° 263° (W) 5,357 11.2 12.9°
Maximum altitude 13:57:13 66° 187° (S) 2,074 9.9 15.7°
Drops below altitude 10° 14:06:21 10° 107° (ESE) 3,440 12.2 17.4°
Sets 14:08:44 0° 104° (ESE) 4,157 12.5 17.9°
